STARLINK-1742, 46376

Orbit data source: Space-Track

STARLINK-1742, 46376 is a payload satellite owned by SpaceX/Seattle (US) in LEO that was launched on Thu, 03 Sep 2020 UTC via an FALCON 9 launch vehicle from the Air Force Eastern Test Range (AFETR). Payload-class satellites include a variety of spacecraft equipped with specific instruments for various scientific and technological missions. These include communications satellites like Starlink; space stations such as the ISS; scientific satellites like the Hubble; Earth observation satellites from companies like Planet Labs, Umbra, and HawkEye 360; GPS; miniature CubeSats for education and research; and military/defense satellites.

Loading next visibility...
Identifier
46376, 2020-062BD
Orbit
LEO
Country
Flag of USUS
Related business
Manufacturer
SpaceX/Seattle
Mission
Partially operational Commercial Communications
Bus & Motor
STARLINK, Unknown motor
Mass
260 kg wet, ~248 kg dry
Launch date (UTC)
2020-09-03 (5 years ago)
Launch vehicle
FALCON 9
Launch site
Air Force Eastern Test Range (AFETR)
Object type
Payload
Rocket body
Debris
Shape & HBR
Box + 1 Pan, 10.1 m
Radar Cross Section
13.562 m², Large (>1 m²)

Expand to show TLE details & history
Last TLE update: 7 hours ago

TLE from 7 hours ago
0 STARLINK-1742
1 46376U 20062BD  25287.00005787  .00099515  00000-0  27608-2 0  9991
2 46376  53.0400 245.6691 0014213   9.1147 327.5193 15.36038068  5775
Epoch: 2025-10-14T00:00Z
TLE epoch observation values (Epoch: 2025-10-14T00:00:04.999Z)
Latitude
-18.72126°
Longitude
-151.83659°
Altitude
454.783 km
Speed
7.644 km/s
True Right ascension
15h 23m 54s
True Declination
-18° 36' 44"
Sunlit
Object was in daylight at epoch
Visualization orbit readout
Latitude
Unknown
Longitude
Unknown
Altitude
Unknown
Speed
Unknown
Apparent Right ascension
Unknown
Apparent Declination
Unknown
Sunlit
N/A
Visualization observer readout
Local Sidereal Time
01:23:17
Azimuth
Unknown
Elevation
Unknown
Doppler factor
Unknown
Orbital elements
Apogee altitude
467.832 km
Perigee altitude
448.399 km
Semi-major axis
6,836.252 km
Eccentricity
0.00142
Inclination
53.04°
RAAN
245.6691°
Arg. of periapsis
9.1147°
True anomaly
327.43171°
Mean anomaly
327.5193°
Eccentric anomaly
327.47552°
Mean motion
3.83987 °/min
Orbital period
93.75 mins
BSTAR
0.0027608
Loading maneuver chart data...
Computing Atmospheric mass density...
Loading historical data...
Loading historical data...
Loading historical data...
Loading historical data...
Loading historical data...
Loading historical data...
Loading historical data...

Documentation

Showing up to 5 results
|